SCP
0 0 0 0 0 0 0 0 0 0 0 0 0 0 0 0 0 0 0 0 0 0 0 0 0 0 0 0 0 0 0 0 0 0 0 0 0 0 0 0 0 0 0
0 0 0 0 0 0 -0 0 -0 0 0 0 0 0 0 0 0 0 0 0 0 0 0 0 0 0 0 0 0 0 0 0 0 0 0 0 0 0 0 0 0 0 0
0 0 0 0 0 0 0 0 0 0 0 0 0 0 0 0 0 0 0 0 0 0 0 0 0 0 0 0 0 0 0 0 0 0 0 0 0 0 0 0 0 0 0
0 0 0 0 0 0 0 0 0 0 0 0 0 0 0 0 0 0 0 0 0 0 0 0 0 0 0 0 0 0 0 0 0 0 0 0 0 0 0 0 0 0 0
0 0 0 0 0 0 0 0 0 0 0 0 0 0 0 0 0 0 0 0 0 0 0 0 0 0 0 0 0 0 0 0 0 0 0 0 0 0 0 0 0 0 0
0 0 0 0 0 0 0 0 0 0 0 0 0 0 0 0 0 0 0 0 0 0 0 0 0 0 0 0 0 0 0 0 0 0 0 0 0 0 0 0 0 0 0
0 0 0 0 0 0 0 0 0 0 0 0 0 0 0 0 0 0 0 0 0 0 0 0 0 0 0 0 0 0 0 0 0 0 0 0 0 0 0 0 0 0 0
0 0 0 0 0 0 0 0 0 0 0 -0 0 0 0 0 0 0 0 0 0 0 0 0 0 0 0 0 0 0 0 0 0 0 0 0 0 0 0 0 0 0 0
0 0 0 0 0 0 0 0 0 0 0 0 0 -0 0 0 0 0 0 0 0 0 0 0 0 0 0 0 0 0 0 0 0 0 0 0 0 0 0 0 0 0 0
0 0 0 0 0 0 0 0 0 0 0 0 0 0 0 0 0 0 0 0 0 0 0 0 0 0 0 0 0 0 0 0 0 0 0 0 0 0 0 0 0 0 0
0 0 0 0 0 0 0 0 0 0 0 0 0 0 0 0 0 0 0 0 0 0 0 0 0 0 0 0 0 0 0 0 0 0 0 0 0 0 0 0 0 0 0
0 0 0 0 0 0 0 0 0 0 0 0 0 -0 0 -0 0 0 0 0 0 0 0 0 0 0 0 0 0 0 0 0 0 0 0 0 0 0 0 0 0 0 0
0 0 0 0 0 0 0 0 0 0 0 0 0 0 0 -0 -0 0 0 0 0 0 0 0 0 0 0 0 0 0 0 0 0 0 0 0 0 0 0 0 0 0 0
0 0 0 0 0 0 0 0 0 0 0 0 0 0 0 0 0 0 0 0 0 0 0 0 0 0 0 0 0 0 0 0 0 0 0 0 0 0 0 0 0 0 0
0 0 0 0 0 0 0 0 0 0 0 0 0 0 0 0 0 0 0 0 0 0 0 0 0 0 0 0 0 0 0 0 0 0 0 0 0 0 0 0 0 0 0
0 0 0 0 0 0 0 0 0 0 0 0 0 0 0 0 0 0 0 0 0 0 0 0 0 0 0 0 0 0 0 0 0 0 0 0 0 0 0 0 0 0 0
0 0 0 0 0 0 0 0 0 0 0 0 0 0 0 0 0 0 0 0 0 0 0 0 0 0 0 0 0 0 0 0 0 0 0 0 0 0 0 0 0 0 0
0 0 0 0 0 0 0 0 0 0 0 0 0 0 0 0 0 0 0 0 0 0 0 0 0 0 0 0 0 0 0 0 0 0 0 0 0 0 0 0 0 0 0
0 0 0 -0 -0 -0 0 0 0 0 0 0 0 0 0 0 0 0 0 0 0 0 0 0 0 0 0 0 0 0 0 0 0 0 0 0 0 0 0 0 0 0 0
0 0 -0 -0 -0 -0 -0 -0 -0 0 0 0 0 0 0 0 0 0 0 0 0 0 0 0 0 0 0 0 0 0 0 0 0 0 0 0 0 0 0 0 0 0 0
0 0 -0 -0 -0 -0 -0 -0 -0 -0 0 0 0 0 0 0 0 0 0 0 0 0 0 0 0 0 0 0 0 0 0 0 0 0 0 0 0 0 0 0 0 0 0
0 0 -0 -0 -0 -0 -0 -0 -0 -0 -0 -0 0 0 0 0 0 0 0 0 0 0 0 0 0 0 0 0 0 0 0 0 0 0 0 0 0 0 0 0 0 0 0
0 -0 -0 -0 -0 -0 -0 -0 0 0 0 0 0 0 0 0 0 0 0 0 0 0 0 0 0 0 0 0 0 0 0 0 0 0 0 0 0 0 0 0 0 0 0
-0 0 -0 -0 -0 -0 -0 -0 -0 -0 0 0 0 0 0 0 0 0 0 0 0 0 0 0 0 0 -0 0 0 0 0 0 -0 0 0 0 0 0 0 0 0 -0 -0
-0 -0 -0 -0 -0 -0 0 -0 -0 -0 0 0 0 0 0 0 0 -0 -0 -0 -0 0 -0 -0 -0 0 0 -0 0 0 0 0 -0 0 0 0 0 0 0 0 -0 -0 0
-0 0 0 0 0 0 0 0 0 0 0 0 0 -0 -0 -0 -0 -0 0 0 -0 0 0 0 0 0 0 0 0 0 0 0 0 0 0 0 0 0 0 0 0 0 0
Wind_Speed_500mb
46 45 39 30 36 34 38 44 58 50 53 57 70 79 86 80 73 68 58 54 55 56 60 59 57 55 57 59 53 50 52 51 47 42 46 50 54 60 63 63 65 65 62
43 47 43 29 27 42 32 32 49 40 64 76 66 71 82 77 71 68 60 54 54 54 60 63 58 55 57 60 60 59 61 58 54 51 51 54 55 67 68 64 68 69 67
49 51 45 34 21 39 46 18 47 61 74 79 65 72 71 72 76 73 68 61 54 56 59 63 58 58 57 67 62 67 64 63 62 62 54 24 28 41 41 38 42 50 56
57 54 48 35 28 29 32 24 17 37 58 70 95 88 87 86 77 72 64 63 64 60 61 62 63 61 59 67 67 70 69 68 70 66 69 73 70 63 54 56 44 42 54
53 54 47 33 22 26 22 28 14 17 29 59 70 75 71 73 63 62 64 69 63 62 62 60 60 62 67 69 73 75 81 77 75 75 74 80 81 80 76 71 65 65 53
43 49 40 30 20 16 31 20 16 10 12 35 31 46 87 76 69 62 66 63 59 59 61 64 65 64 69 75 73 77 82 84 84 80 82 79 71 73 70 81 82 77 76
35 37 37 30 23 17 23 24 24 15 13 9 13 34 75 69 58 56 57 56 58 57 58 63 68 70 69 70 77 83 85 87 86 84 85 86 87 76 65 62 70 65 64
29 24 29 27 20 8 16 29 27 20 3 5 8 33 46 51 43 48 50 48 49 50 58 67 71 73 75 80 81 83 83 81 83 83 81 69 64 63 56 50 45 51 57
25 19 14 8 8 9 8 23 17 10 5 8 10 20 25 40 45 46 41 54 49 46 44 49 51 55 64 66 65 61 48 42 45 48 49 48 44 40 40 36 34 31 24
21 20 18 15 13 16 26 28 32 20 10 9 5 30 14 19 19 24 20 17 12 14 11 15 23 31 35 33 32 27 28 34 33 23 17 17 21 23 23 28 33 37 39
54 58 53 48 41 35 36 41 33 20 21 23 28 29 23 30 26 24 32 25 14 16 15 15 10 8 13 17 16 13 11 11 7 8 10 12 14 18 18 19 24 30 35
70 75 69 70 64 62 61 62 62 55 56 49 34 27 31 34 41 50 45 42 41 37 35 33 35 34 33 32 32 30 27 22 20 19 19 18 15 15 18 20 23 27 32
82 84 89 83 80 78 80 81 80 76 69 62 52 56 60 56 57 57 53 52 53 53 52 49 53 53 49 44 41 35 32 30 29 28 27 27 27 29 31 32 33 35 38
78 80 93 91 85 86 86 87 86 79 77 66 68 72 69 64 63 64 64 65 64 63 59 59 56 55 52 47 43 39 37 34 34 33 31 32 34 34 36 38 39 41 42
81 78 82 89 86 91 93 93 90 82 77 79 78 80 76 71 70 70 68 65 65 63 60 56 54 52 52 47 40 36 34 34 34 36 37 39 39 39 41 42 44 45 46
72 72 83 88 90 89 100 94 90 86 83 86 84 77 72 70 71 68 67 64 66 63 58 57 54 54 58 48 46 42 41 38 39 39 40 39 38 38 40 43 46 48 48
67 77 89 88 90 96 96 95 88 80 81 79 76 72 70 71 69 65 63 65 65 59 61 60 54 54 53 46 44 41 40 41 43 45 47 50 52 53 55 55 55 54 52
77 85 82 86 87 89 88 86 81 80 79 79 75 70 68 70 65 61 63 62 59 60 60 56 54 51 53 45 43 41 43 46 50 52 54 55 57 61 63 62 59 57 54
71 75 80 85 86 85 80 81 83 82 81 79 73 68 64 65 63 64 63 61 56 56 56 53 50 49 49 45 46 47 49 51 53 53 56 60 62 58 53 66 66 65 62
76 80 82 81 79 80 76 77 78 75 77 71 68 64 60 62 63 61 61 59 57 57 53 51 52 48 47 46 48 52 55 59 61 61 63 64 65 63 60 64 65 67 69
67 70 73 77 75 71 70 78 74 77 70 64 61 60 60 60 58 56 55 53 52 49 50 50 51 51 50 51 50 52 58 65 69 72 77 77 75 71 67 65 62 58 64
63 65 66 69 67 66 65 73 78 68 62 58 59 59 59 58 54 51 50 49 48 50 52 51 50 50 51 55 60 63 65 68 74 73 77 79 77 74 70 66 59 56 65
57 58 61 62 62 62 63 69 68 58 57 57 60 57 53 51 50 50 50 49 50 53 56 57 57 55 54 56 62 69 73 75 80 76 76 78 76 72 69 66 64 66 70
50 52 54 61 64 61 61 62 55 50 48 53 55 52 52 52 52 52 52 51 53 55 56 58 60 61 61 62 67 73 79 83 84 82 78 75 69 65 65 67 65 63 61
44 45 50 54 57 54 55 53 47 42 45 50 51 51 50 50 51 54 57 58 57 55 55 55 57 62 65 60 56 60 65 70 68 77 83 84 85 83 81 78 73 68 64
38 40 43 45 48 46 48 47 43 38 41 48 50 51 51 51 50 48 46 46 46 46 49 54 60 64 64 53 58 63 63 81 79 82 84 86 86 85 82 78 75 67 64
Wind_Direction_500mb
270 268 275 295 227 237 250 226 229 226 240 187 204 209 208 208 212 216 216 216 217 216 216 217 217 219 224 223 227 227 235 236 246 254 258 265 270 270 268 268 266 264 263
263 264 267 277 227 229 237 225 226 236 205 193 199 209 212 212 216 217 217 219 222 223 222 223 223 225 228 228 231 235 235 240 246 250 261 264 271 273 273 275 272 271 267
254 258 260 263 247 222 227 255 220 219 210 193 198 201 210 218 217 219 218 217 223 227 225 224 227 227 234 232 239 242 235 248 250 254 250 254 257 280 283 282 281 284 278
244 248 253 256 252 232 219 243 216 220 227 220 198 199 199 205 213 220 218 218 224 229 233 229 230 238 229 238 240 239 241 250 251 254 256 262 263 270 282 280 281 273 278
242 235 242 245 248 226 227 238 235 273 247 210 217 206 208 210 215 216 221 222 225 229 233 237 242 239 237 240 243 243 244 246 249 255 254 260 257 259 261 271 274 278 281
253 240 233 235 228 216 221 218 229 275 182 239 234 223 219 217 217 218 222 226 226 233 239 241 242 245 246 243 252 251 252 249 252 258 262 258 257 265 259 264 269 279 282
253 238 228 217 218 227 196 206 211 220 252 269 291 230 243 234 224 221 225 228 228 234 241 245 249 255 252 253 255 256 258 257 251 254 254 256 253 257 266 269 279 278 278
239 235 224 211 211 220 204 181 206 217 251 50 253 306 269 241 243 255 239 241 231 250 251 248 248 250 249 247 251 255 253 249 245 249 255 253 260 268 271 273 273 279 282
205 169 180 172 195 194 192 200 179 173 183 11 58 320 250 241 231 227 231 233 236 257 257 257 256 272 273 269 272 268 262 262 264 258 255 255 264 277 279 276 277 274 292
88 103 97 103 115 108 139 155 156 141 99 48 62 350 132 194 170 169 165 175 179 259 278 294 306 301 290 283 284 281 281 272 270 275 281 298 299 294 295 296 298 298 289
75 87 95 99 101 113 122 130 150 147 112 98 90 58 48 66 74 85 77 72 73 60 58 53 46 48 33 22 27 35 30 5 12 346 340 348 329 315 313 311 309 308 304
72 85 94 98 98 98 103 107 110 113 103 91 80 82 79 66 65 69 70 74 78 74 66 62 67 65 58 55 56 58 58 61 59 51 34 35 19 3 355 346 334 325 323
68 75 83 91 92 91 97 98 97 99 99 97 96 93 88 85 82 79 76 76 75 73 73 75 72 71 70 67 66 65 65 62 58 48 39 31 17 11 3 356 348 339 331
64 70 78 87 91 91 94 95 94 94 92 93 93 89 84 80 78 79 80 78 76 76 77 75 76 76 71 66 63 59 58 53 49 44 34 23 14 9 4 1 356 350 342
57 64 75 85 86 89 93 95 94 89 90 92 90 88 90 90 88 83 81 80 78 78 78 78 78 76 72 66 60 56 52 48 44 40 36 34 30 23 15 7 360 351 345
54 63 78 87 90 91 93 93 92 95 96 93 92 93 92 89 84 82 79 76 75 74 74 71 70 70 70 65 60 52 51 49 46 41 35 29 22 16 10 3 356 348 343
58 68 85 85 90 91 93 92 94 94 91 92 92 89 85 83 80 78 77 75 74 73 72 71 68 69 69 63 58 54 50 45 41 32 25 18 11 3 358 354 348 343 338
73 82 88 91 93 95 95 97 97 95 93 90 88 87 85 84 83 81 77 75 73 70 70 71 73 71 69 61 54 47 43 38 32 23 15 7 360 354 350 345 342 338 336
87 88 90 94 96 95 95 95 93 91 90 88 88 86 85 85 82 78 76 75 74 73 71 68 63 59 58 50 43 35 32 28 21 13 6 1 356 355 354 343 342 337 333
86 88 93 94 93 95 97 95 92 90 87 86 85 84 84 80 78 77 73 69 65 64 60 57 53 48 46 40 32 26 21 16 10 3 358 355 351 348 346 339 339 334 329
89 94 96 94 94 93 91 87 87 84 87 88 86 83 79 75 74 74 72 67 62 58 54 49 45 41 38 33 24 16 12 6 2 357 353 351 348 342 339 336 335 332 324
88 87 88 89 91 92 90 90 87 88 88 86 85 84 82 78 73 68 67 63 58 54 51 47 43 37 30 22 15 9 5 359 355 352 349 347 343 341 338 335 336 334 332
88 89 89 89 88 87 87 88 89 91 90 86 81 78 75 71 68 62 59 57 53 48 43 36 29 23 15 10 5 2 358 355 351 348 346 340 339 337 334 335 336 335 336
95 96 98 94 91 87 85 86 90 89 86 82 79 73 65 60 54 51 50 47 45 39 33 27 20 13 8 3 359 355 352 349 349 344 341 340 339 339 339 341 345 345 342
99 98 96 95 95 94 90 86 82 80 78 75 69 63 58 54 52 49 47 41 37 28 21 16 11 7 4 4 353 350 349 341 347 336 340 342 343 344 344 345 347 348 348
104 104 101 99 98 97 95 91 85 76 70 68 63 58 53 49 47 43 38 36 30 22 17 12 6 4 0 356 351 349 346 345 343 343 343 345 346 346 346 346 347 351 350
Wind_Speed_850mb
46 45 39 30 36 34 38 44 58 50 53 57 70 79 86 80 73 68 58 54 55 56 60 59 57 55 57 59 53 50 52 51 47 42 46 50 54 60 63 63 65 65 62
43 47 43 29 27 42 32 32 49 40 64 76 66 71 82 77 71 68 60 54 54 54 60 63 58 55 57 60 60 59 61 58 54 51 51 54 55 67 68 64 68 69 67
49 51 45 34 21 39 46 18 47 61 74 79 65 72 71 72 76 73 68 61 54 56 59 63 58 58 57 67 62 67 64 63 62 62 54 24 28 41 41 38 42 50 56
57 54 48 35 28 29 32 24 17 37 58 70 95 88 87 86 77 72 64 63 64 60 61 62 63 61 59 67 67 70 69 68 70 66 69 73 70 63 54 56 44 42 54
53 54 47 33 22 26 22 28 14 17 29 59 70 75 71 73 63 62 64 69 63 62 62 60 60 62 67 69 73 75 81 77 75 75 74 80 81 80 76 71 65 65 53
43 49 40 30 20 16 31 20 16 10 12 35 31 46 87 76 69 62 66 63 59 59 61 64 65 64 69 75 73 77 82 84 84 80 82 79 71 73 70 81 82 77 76
35 37 37 30 23 17 23 24 24 15 13 9 13 34 75 69 58 56 57 56 58 57 58 63 68 70 69 70 77 83 85 87 86 84 85 86 87 76 65 62 70 65 64
29 24 29 27 20 8 16 29 27 20 3 5 8 33 46 51 43 48 50 48 49 50 58 67 71 73 75 80 81 83 83 81 83 83 81 69 64 63 56 50 45 51 57
25 19 14 8 8 9 8 23 17 10 5 8 10 20 25 40 45 46 41 54 49 46 44 49 51 55 64 66 65 61 48 42 45 48 49 48 44 40 40 36 34 31 24
21 20 18 15 13 16 26 28 32 20 10 9 5 30 14 19 19 24 20 17 12 14 11 15 23 31 35 33 32 27 28 34 33 23 17 17 21 23 23 28 33 37 39
54 58 53 48 41 35 36 41 33 20 21 23 28 29 23 30 26 24 32 25 14 16 15 15 10 8 13 17 16 13 11 11 7 8 10 12 14 18 18 19 24 30 35
70 75 69 70 64 62 61 62 62 55 56 49 34 27 31 34 41 50 45 42 41 37 35 33 35 34 33 32 32 30 27 22 20 19 19 18 15 15 18 20 23 27 32
82 84 89 83 80 78 80 81 80 76 69 62 52 56 60 56 57 57 53 52 53 53 52 49 53 53 49 44 41 35 32 30 29 28 27 27 27 29 31 32 33 35 38
78 80 93 91 85 86 86 87 86 79 77 66 68 72 69 64 63 64 64 65 64 63 59 59 56 55 52 47 43 39 37 34 34 33 31 32 34 34 36 38 39 41 42
81 78 82 89 86 91 93 93 90 82 77 79 78 80 76 71 70 70 68 65 65 63 60 56 54 52 52 47 40 36 34 34 34 36 37 39 39 39 41 42 44 45 46
72 72 83 88 90 89 100 94 90 86 83 86 84 77 72 70 71 68 67 64 66 63 58 57 54 54 58 48 46 42 41 38 39 39 40 39 38 38 40 43 46 48 48
67 77 89 88 90 96 96 95 88 80 81 79 76 72 70 71 69 65 63 65 65 59 61 60 54 54 53 46 44 41 40 41 43 45 47 50 52 53 55 55 55 54 52
77 85 82 86 87 89 88 86 81 80 79 79 75 70 68 70 65 61 63 62 59 60 60 56 54 51 53 45 43 41 43 46 50 52 54 55 57 61 63 62 59 57 54
71 75 80 85 86 85 80 81 83 82 81 79 73 68 64 65 63 64 63 61 56 56 56 53 50 49 49 45 46 47 49 51 53 53 56 60 62 58 53 66 66 65 62
76 80 82 81 79 80 76 77 78 75 77 71 68 64 60 62 63 61 61 59 57 57 53 51 52 48 47 46 48 52 55 59 61 61 63 64 65 63 60 64 65 67 69
67 70 73 77 75 71 70 78 74 77 70 64 61 60 60 60 58 56 55 53 52 49 50 50 51 51 50 51 50 52 58 65 69 72 77 77 75 71 67 65 62 58 64
63 65 66 69 67 66 65 73 78 68 62 58 59 59 59 58 54 51 50 49 48 50 52 51 50 50 51 55 60 63 65 68 74 73 77 79 77 74 70 66 59 56 65
57 58 61 62 62 62 63 69 68 58 57 57 60 57 53 51 50 50 50 49 50 53 56 57 57 55 54 56 62 69 73 75 80 76 76 78 76 72 69 66 64 66 70
50 52 54 61 64 61 61 62 55 50 48 53 55 52 52 52 52 52 52 51 53 55 56 58 60 61 61 62 67 73 79 83 84 82 78 75 69 65 65 67 65 63 61
44 45 50 54 57 54 55 53 47 42 45 50 51 51 50 50 51 54 57 58 57 55 55 55 57 62 65 60 56 60 65 70 68 77 83 84 85 83 81 78 73 68 64
38 40 43 45 48 46 48 47 43 38 41 48 50 51 51 51 50 48 46 46 46 46 49 54 60 64 64 53 58 63 63 81 79 82 84 86 86 85 82 78 75 67 64
Wind_Direction_850mb
270 268 275 295 227 237 250 226 229 226 240 187 204 209 208 208 212 216 216 216 217 216 216 217 217 219 224 223 227 227 235 236 246 254 258 265 270 270 268 268 266 264 263
263 264 267 277 227 229 237 225 226 236 205 193 199 209 212 212 216 217 217 219 222 223 222 223 223 225 228 228 231 235 235 240 246 250 261 264 271 273 273 275 272 271 267
254 258 260 263 247 222 227 255 220 219 210 193 198 201 210 218 217 219 218 217 223 227 225 224 227 227 234 232 239 242 235 248 250 254 250 254 257 280 283 282 281 284 278
244 248 253 256 252 232 219 243 216 220 227 220 198 199 199 205 213 220 218 218 224 229 233 229 230 238 229 238 240 239 241 250 251 254 256 262 263 270 282 280 281 273 278
242 235 242 245 248 226 227 238 235 273 247 210 217 206 208 210 215 216 221 222 225 229 233 237 242 239 237 240 243 243 244 246 249 255 254 260 257 259 261 271 274 278 281
253 240 233 235 228 216 221 218 229 275 182 239 234 223 219 217 217 218 222 226 226 233 239 241 242 245 246 243 252 251 252 249 252 258 262 258 257 265 259 264 269 279 282
253 238 228 217 218 227 196 206 211 220 252 269 291 230 243 234 224 221 225 228 228 234 241 245 249 255 252 253 255 256 258 257 251 254 254 256 253 257 266 269 279 278 278
239 235 224 211 211 220 204 181 206 217 251 50 253 306 269 241 243 255 239 241 231 250 251 248 248 250 249 247 251 255 253 249 245 249 255 253 260 268 271 273 273 279 282
205 169 180 172 195 194 192 200 179 173 183 11 58 320 250 241 231 227 231 233 236 257 257 257 256 272 273 269 272 268 262 262 264 258 255 255 264 277 279 276 277 274 292
88 103 97 103 115 108 139 155 156 141 99 48 62 350 132 194 170 169 165 175 179 259 278 294 306 301 290 283 284 281 281 272 270 275 281 298 299 294 295 296 298 298 289
75 87 95 99 101 113 122 130 150 147 112 98 90 58 48 66 74 85 77 72 73 60 58 53 46 48 33 22 27 35 30 5 12 346 340 348 329 315 313 311 309 308 304
72 85 94 98 98 98 103 107 110 113 103 91 80 82 79 66 65 69 70 74 78 74 66 62 67 65 58 55 56 58 58 61 59 51 34 35 19 3 355 346 334 325 323
68 75 83 91 92 91 97 98 97 99 99 97 96 93 88 85 82 79 76 76 75 73 73 75 72 71 70 67 66 65 65 62 58 48 39 31 17 11 3 356 348 339 331
64 70 78 87 91 91 94 95 94 94 92 93 93 89 84 80 78 79 80 78 76 76 77 75 76 76 71 66 63 59 58 53 49 44 34 23 14 9 4 1 356 350 342
57 64 75 85 86 89 93 95 94 89 90 92 90 88 90 90 88 83 81 80 78 78 78 78 78 76 72 66 60 56 52 48 44 40 36 34 30 23 15 7 360 351 345
54 63 78 87 90 91 93 93 92 95 96 93 92 93 92 89 84 82 79 76 75 74 74 71 70 70 70 65 60 52 51 49 46 41 35 29 22 16 10 3 356 348 343
58 68 85 85 90 91 93 92 94 94 91 92 92 89 85 83 80 78 77 75 74 73 72 71 68 69 69 63 58 54 50 45 41 32 25 18 11 3 358 354 348 343 338
73 82 88 91 93 95 95 97 97 95 93 90 88 87 85 84 83 81 77 75 73 70 70 71 73 71 69 61 54 47 43 38 32 23 15 7 360 354 350 345 342 338 336
87 88 90 94 96 95 95 95 93 91 90 88 88 86 85 85 82 78 76 75 74 73 71 68 63 59 58 50 43 35 32 28 21 13 6 1 356 355 354 343 342 337 333
86 88 93 94 93 95 97 95 92 90 87 86 85 84 84 80 78 77 73 69 65 64 60 57 53 48 46 40 32 26 21 16 10 3 358 355 351 348 346 339 339 334 329
89 94 96 94 94 93 91 87 87 84 87 88 86 83 79 75 74 74 72 67 62 58 54 49 45 41 38 33 24 16 12 6 2 357 353 351 348 342 339 336 335 332 324
88 87 88 89 91 92 90 90 87 88 88 86 85 84 82 78 73 68 67 63 58 54 51 47 43 37 30 22 15 9 5 359 355 352 349 347 343 341 338 335 336 334 332
88 89 89 89 88 87 87 88 89 91 90 86 81 78 75 71 68 62 59 57 53 48 43 36 29 23 15 10 5 2 358 355 351 348 346 340 339 337 334 335 336 335 336
95 96 98 94 91 87 85 86 90 89 86 82 79 73 65 60 54 51 50 47 45 39 33 27 20 13 8 3 359 355 352 349 349 344 341 340 339 339 339 341 345 345 342
99 98 96 95 95 94 90 86 82 80 78 75 69 63 58 54 52 49 47 41 37 28 21 16 11 7 4 4 353 350 349 341 347 336 340 342 343 344 344 345 347 348 348
104 104 101 99 98 97 95 91 85 76 70 68 63 58 53 49 47 43 38 36 30 22 17 12 6 4 0 356 351 349 346 345 343 343 343 345 346 346 346 346 347 351 350